Location: Black Creek
(40.9000°S, 175.5500°E)
Time: 00:23:00
(UTC+00:00)

Meteor 1-24 Rocket - Pass Details

Date: 10 November 2024
Orbit: 789 x 926 km, 81.3° (Epoch: 03 December)

Event Time Altitude Azimuth Distance (km) Brightness Sun altitude
Rises 14:20:03 0° 180° (S) 3,606 7.8 -23.5°
Reaches altitude 10° 14:22:59 10° 167° (SSE) 2,646 7.2 -23.1°
Maximum altitude 14:28:03 27° 111° (ESE) 1,687 5.8 -22.6°
Drops below altitude 10° 14:32:57 10° 54° (NE) 2,563 6.2 -22.0°
Sets 14:35:44 0° 41° (NE) 3,472 6.8 -21.7°
